Miscellaneous Local Product
Issued by NWS North Platte, NE

Home | Current Version | Previous Version | Graphics & Text | Print | Product List | Glossary On
Versions: 1 2 3 4 5 6 7 8 9 10 11 12 13 14 15 16 17 18 19 20 21 22 23 24 25 26 27 28 29 30 31 32 33 34 35 36 37 38 39 40 41 42 43 44 45 46 47 48 49 50
810
AXUS43 KLBF 231110
MISLBF


WESTERN AND NORTH CENTRAL NEBRASKA HOURLY WEATHER ROUNDUP
NATIONAL WEATHER SERVICE NORTH PLATTE NE
500 AM CST MON JAN 23 2017

NOTE: "FAIR" INDICATES FEW OR NO CLOUDS BELOW 12,000 FEET WITH NO
SIGNIFICANT WEATHER AND/OR OBSTRUCTIONS TO VISIBILITY.

NOTE: STATIONS NOT REPORTING VARIABLES SUCH AS SKY/WEATHER OR
PRESSURE ARE PROVIDED BY RAWS AND APRS NETWORKS AND ARE NOT UNDER
NATIONAL WEATHER SERVICE QUALITY CONTROL.

...OBSERVATIONS IN AND NEAR THE EASTERN PANHANDLE OF NEBRASKA...

CITY           SKY/WX    TMP DP  RH WIND       PRES   REMARKS
PINE RIDGE     CLOUDY    30  19  63 CALM      29.71F
CHADRON        MOCLDY    20  16  84 W5        29.71S WCI  13
ALLIANCE       CLOUDY    25  20  81 SE7       29.70F WCI  17
SIDNEY         CLOUDY    32  22  66 S9        29.71F WCI  24
CRESCENT LAKE    N/A     25  21  85 S6          N/A  WCI  18
$$

...OBSERVATIONS IN NORTHERN NEBRASKA AND FAR SOUTHERN SOUTH DAKOTA...

CITY           SKY/WX    TMP DP  RH WIND       PRES   REMARKS
WINNER         FOG       25  23  92 S7        29.83F VSB 1/4 WCI  17
VALENTINE      CLOUDY    17  14  88 E5        29.78F WCI  10
THEDFORD       CLOUDY    23  22  94 CALM      29.78F
AINSWORTH      CLOUDY    18  18  98 E5        29.79F WCI  11
O`NEILL        CLOUDY    26  26  99 CALM      29.84F FOG
ORD            CLEAR     21  18  88 E5        29.84F WCI  15
BROKEN BOW     PTCLDY    27  25  92 CALM      29.80F
VALENTINE NWR    N/A     22  19  87 S3          N/A
BUTTE            N/A     25  24  93 CALM        N/A
HALSEY           N/A     26  22  84 CALM        N/A
CHAMBERS         N/A     24  22  91 SE3         N/A
EWING            N/A     26  25  94 CALM        N/A
$$

...OBSERVATIONS IN SOUTHWEST NEBRASKA AND FAR NORTHEAST COLORADO...

CITY           SKY/WX    TMP DP  RH WIND       PRES   REMARKS
WRAY           PTSUNNY   32  27  80 S6        29.76F WCI  26
HOLYOKE        FAIR      34  28  80 SE6       29.75F WCI  29
IMPERIAL       CLOUDY    30  25  81 SE6       29.77F WCI  24
OGALLALA       MOCLDY    26  24  90 CALM      29.78R
NORTH PLATTE   CLEAR     21  18  88 CALM      29.80F
MCCOOK         PTCLDY    23  22  96 W5        29.82F WCI  17
LEXINGTON      PTCLDY    27  24  91 CALM      29.82F
STAPLETON        N/A     22  20  92 CALM        N/A
GOTHENBURG       N/A     25  23  90 CALM        N/A
CALLAWAY         N/A     26  23  88 S8          N/A  WCI  18
$$

...OBSERVATIONS IN CENTRAL LINCOLN COUNTY AREA...

CITY           SKY/WX    TMP DP  RH WIND       PRES   REMARKS
N.P. AIRPORT   CLEAR     21  18  88 CALM      29.80F
N.P. DOWNTOWN    N/A     22  21  95 CALM        N/A
N.P. SOUTHEAST   N/A     22  20  93 CALM        N/A
N.P. HILLCREST   N/A     29  26  87 CALM        N/A
$$

...SOME OBSERVATIONS FROM AROUND THE REGION...

CITY           SKY/WX    TMP DP  RH WIND       PRES   REMARKS
LARAMIE        CLOUDY    25  20  81 SW12      29.64F WCI  14
CHEYENNE       CLOUDY    26  13  57 CALM      29.66F
DENVER         CLOUDY    26  17  68 SW3       29.66F
AKRON          CLOUDY    31  21  66 S12       29.69F WCI  22
SCOTTSBLUFF    CLOUDY    27  21  78 E5        29.72F WCI  22
RAPID CITY     CLOUDY    22  20  92 CALM      29.69F
BISMARCK       CLOUDY    30  23  75 W5        29.81S WCI  25
PIERRE         CLOUDY    27  22  81 E3        29.82F
SIOUX FALLS    CLOUDY    31  29  92 NW8       29.85S WCI  23
OMAHA          CLOUDY    32  26  78 N10       29.89F WCI  24
GRAND ISLAND   CLEAR     22  21  96 CALM      29.87F
KANSAS CITY    FOG       30  28  92 NW8       29.90S VSB 1/8 WCI  22
WICHITA        CLEAR     27  26  96 SW3       29.91F
OKLAHOMA CITY  CLOUDY    30  27  88 CALM      29.93F
DALLAS         CLEAR     43  34  70 N8        29.93S
AMARILLO       CLOUDY    35  25  66 S9        29.88F WCI  28
DODGE CITY     CLOUDY    29  24  82 SW7       29.87S WCI  22
HAYS           CLOUDY    23  20  88 SW6       29.87R WCI  16
GOODLAND       CLOUDY    34  26  72 S13       29.75F WCI  25
$$




USA.gov is the U.S. government's official web portal to all federal, state and local government web resources and services.